Location: Austin
(30.3000°N, 97.7500°W)
Time: 07:33:40
(UTC-05:00)

Cosmos 2263 - Pass Details

Date: 16 June 2025
Orbit: 831 x 862 km, 70.9° (Epoch: 07 July)

Event Time Altitude Azimuth Distance (km) Brightness Sun altitude
Exits shadow 04:51:19 29° 210° (SSW) 1,513 5.0 -18.1°
Maximum altitude 04:54:19 74° 290° (WNW) 891 4.2 -17.6°
Drops below altitude 10° 05:00:02 10° 16° (NNE) 2,484 7.5 -16.7°
Sets 05:02:30 0° 18° (NNE) 3,418 8.4 -16.3°
